星链-30072 (STARLINK-30072 )
导读
STARLINK-30072是美国太空探索技术公司(SpaceX)发射的星链(Starlink)低轨互联网通信卫星,于2023年8月7日在美国发射升空。它属于星链星座扩容组网卫星,旨在补充完善全球卫星互联网星座覆盖,提升偏远地区网络接入能力,增强星座整体通信服务稳定性,支持星链项目提供高速低延迟的全球互联服务。
Basic Information
目录编号:
57501
目录名称:
STARLINK-30072
国际标识:
2023-113G
轨道中心:
EARTH
卫星名称:
星链-30072
卫星全名:
星链-30072 (STARLINK-30072 )
卫星状态:
在轨 (已飞行1131 天)
发射日期:
2023-08-07 UTC
国别 :
美国
(US)
星等 :
--
This satellite is enrolled in the Space Conjunction Data Service (SCDS) and the current flight risk assessment level is: No High Risk
Orbit Information
| 数据来源 | 国际轨道数据 |
| 星历时间: | 2026-09-10T11:45:10+0800 1天前 查看轨道信息 |
| 半长轴: | 6861.151km |
| 偏心率: | 0.0000911 |
| 轨道倾角: | 43.002° |
| 近地点辐角 | 262.695° |
| 升交点赤经 | 54.570° |
| 平近点角 | 97.380° |
| 近地点: | 482.388km |
| 远地点: | 483.64km |
| 周期: | 94.266分钟 |
| 每日圈数: | 15.275918 |
Detailed Information
固有亮度:
5
最大亮度:
0.3
卫星平台:
Starlink v2.0 mini
覆盖范围:
全球
运营商:
太空探索技术公司
运营商所在国:
美国
制造商(研发单位):
太空探索技术公司
制造商所在国:
美国
使用方式:
暂无
Satellite Introduction
星链(Starlink)计划是由太空探索技术公司(SpaceX)提出的一个巨型低轨卫星互联网星座项目,计划在2019年至2024年间在太空搭建由约1.2万颗卫星组成的“星链”网络,其中1584颗将部署在地球上空550千米处的近地轨道,并从2020年开始工作。该卫星仍在工作。
2D Orbit Map
3D Orbit Map
Orbit Altitude Analysis Chart
Orbit Inclination Analysis Chart
Orbit Comprehensive Analysis Chart
View Comprehensive ChartConjunction Data List
| Event ID | Objects | TCA | Miss Dist (km) | Collision Risk Probability | Collision Risk Index (CRI) | Action |
|---|---|---|---|---|---|---|
| CDM_260912-232105-750106-741721 |
STARLINK-30072
(57501)
STARLINK-36374
(67417) | 2026-09-12T 23:21:06+0000 |
0.819 km
远距离 | 3.95619E-5 中风险 | 0.67 | |
| CDM_260912-010205-750106-681821 |
STARLINK-30072
(57501)
STARLINK-35994
(66818) | 2026-09-12T 01:02:38+0000 |
1.178 km
极远距离 | 9.825478E-6 低风险 | 0.55 | |
| CDM_260912-111405-750106-681821 |
STARLINK-30072
(57501)
STARLINK-35994
(66818) | 2026-09-12T 11:14:38+0000 |
1.593 km
极远距离 | 3.620131E-6 低风险 | 0.46 | |
| CDM_260912-214605-750106-741721 |
STARLINK-30072
(57501)
STARLINK-36374
(67417) | 2026-09-12T 21:46:57+0000 |
1.729 km
极远距离 | 3.256447E-6 低风险 | 0.45 | |
| CDM_260912-023605-750106-681821 |
STARLINK-30072
(57501)
STARLINK-35994
(66818) | 2026-09-12T 02:36:47+0000 |
1.655 km
极远距离 | 3.222159E-6 低风险 | 0.45 | |
| CDM_260912-124805-750106-681821 |
STARLINK-30072
(57501)
STARLINK-35994
(66818) | 2026-09-12T 12:48:47+0000 |
2.198 km
极远距离 | 1.550035E-6 低风险 | 0.39 |
Miss Distance Evolution Trend with All Objects
Collision Probability Evolution Trend with All Objects

